Weather History for Palestine, TX

Change the Weather History Date:

Sunday, October 20, 2013

  Actual Average (KTYR) Record (KTYR)
Temperature  
Mean Temperature 53 °F 66 °F  
Max Temperature 69 °F 77 °F 92 °F (1977)
Min Temperature 37 °F 55 °F 29 °F (1976)
Degree Days  
Heating Degree Days 12 3  
Month to date heating degree days 28  
Since 1 July heating degree days 33  
Cooling Degree Days 0 3  
Month to date cooling degree days 100  
Year to date cooling degree days 2364  
Growing Degree Days 3 (Base 50)    
Moisture  
Dew Point 42 °F    
Average Humidity 69    
Maximum Humidity 95    
Minimum Humidity 38    
Precipitation  
Precipitation 0.00 in 0.18 in 1.62 in (1993)
Month to date precipitation 3.00  
Year to date precipitation 35.60  
Snow  
Snow 0.00 in - - ()
Month to date snowfall  
Since 1 July snowfall  
Since 1 September snowfall  
Snow Depth -    
Sea Level Pressure  
Sea Level Pressure 30.04 in    
Wind  
Wind Speed 2 mph (SE)    
Max Wind Speed 10 mph    
Max Gust Speed -    
Visibility 10 miles    
Events      
T = Trace of Precipitation, MM = Missing Value Source: NWS Daily Summary

Daily Weather History Graph

Daily Weather History Graph

Search for Another Location

Airport:

Trip Planner

Search our weather history database for the weather conditions in past years. The results will help you decide how hot, cold, wet, or windy it might be!

Date:

Astronomy

Oct. 20, 2013 Rise Set
Actual Time 7:29 AM CDT 6:44 PM CDT
Civil Twilight 7:05 AM CDT 7:09 PM CDT
Nautical Twilight 6:36 AM CDT 7:37 PM CDT
Astronomical Twilight 6:08 AM CDT 8:06 PM CDT
Moon 8:01 PM CDT (10/20) 9:02 AM CDT (10/20)
Length of Visible Light 12h 04m
Length of Day
11h 14m
Full, 97% of the Moon is Illuminated
Oct 20
Full
Oct 26
Last Quarter
Nov 3
New
Nov 9
First Quarter
Nov 17
Full

Hourly Weather History & Observations

Time (CDT) Temp. Dew Point Humidity Pressure Visibility Wind Dir Wind Speed Gust Speed Precip Events Conditions
12:15 AM 43.0 °F 41.0 °F 93% 30.11 in 10.0 mi Calm Calm - N/A   Clear
12:35 AM 42.8 °F 40.5 °F 91% 30.10 in 10.0 mi Calm Calm - N/A   Clear
12:55 AM 41.9 °F 40.1 °F 93% 30.10 in 10.0 mi Calm Calm - N/A   Clear
1:15 AM 41.5 °F 39.7 °F 93% 30.10 in 10.0 mi Calm Calm - N/A   Clear
1:35 AM 41.0 °F 39.2 °F 93% 30.10 in 10.0 mi Calm Calm - N/A   Clear
1:55 AM 40.6 °F 39.0 °F 94% 30.10 in 10.0 mi Calm Calm - N/A   Clear
2:15 AM 40.5 °F 39.2 °F 95% 30.09 in 5.0 mi Calm Calm - N/A   Clear
2:35 AM 39.9 °F 38.5 °F 95% 30.09 in 10.0 mi Calm Calm - N/A   Clear
2:55 AM 39.2 °F 37.8 °F 95% 30.09 in 10.0 mi Calm Calm - N/A   Clear
3:15 AM 39.6 °F 38.1 °F 95% 30.08 in 10.0 mi Calm Calm - N/A   Clear
3:35 AM 39.0 °F 37.6 °F 95% 30.08 in 10.0 mi Calm Calm - N/A   Clear
3:55 AM 39.2 °F 37.6 °F 94% 30.08 in 10.0 mi Calm Calm - N/A   Clear
4:15 AM 38.8 °F 37.4 °F 95% 30.08 in 10.0 mi Calm Calm - N/A   Clear
4:35 AM 39.2 °F 37.6 °F 94% 30.07 in 10.0 mi Calm Calm - N/A   Clear
4:55 AM 38.7 °F 37.0 °F 94% 30.07 in 10.0 mi Calm Calm - N/A   Clear
5:15 AM 38.3 °F 36.7 °F 94% 30.07 in 10.0 mi Calm Calm - N/A   Clear
5:35 AM 38.7 °F 37.2 °F 95% 30.08 in 10.0 mi Calm Calm - N/A   Clear
5:55 AM 38.8 °F 37.2 °F 94% 30.09 in 10.0 mi Calm Calm - N/A   Clear
6:15 AM 38.8 °F 37.2 °F 94% 30.08 in 10.0 mi Calm Calm - N/A   Clear
6:35 AM 38.1 °F 36.5 °F 94% 30.09 in 10.0 mi Calm Calm - N/A   Clear
6:55 AM 37.8 °F 36.0 °F 93% 30.10 in 10.0 mi Calm Calm - N/A   Clear
7:15 AM 37.8 °F 36.0 °F 93% 30.10 in 10.0 mi Calm Calm - N/A   Clear
7:35 AM 37.8 °F 36.1 °F 94% 30.10 in 10.0 mi Calm Calm - N/A   Clear
7:55 AM 37.4 °F 35.8 °F 94% 30.10 in 10.0 mi Calm Calm - N/A   Clear
8:15 AM 37.8 °F 36.5 °F 95% 30.10 in 10.0 mi Calm Calm - N/A   Clear
8:35 AM 41.0 °F 39.6 °F 95% 30.10 in 10.0 mi Calm Calm - N/A   Clear
8:55 AM 44.8 °F 42.3 °F 91% 30.11 in 10.0 mi Calm Calm - N/A   Clear
9:15 AM 47.8 °F 41.9 °F 80% 30.11 in 10.0 mi ESE 3.5 mph - N/A   Clear
9:35 AM 50.4 °F 43.5 °F 77% 30.11 in 10.0 mi SE 4.6 mph - N/A   Clear
9:55 AM 52.5 °F 43.5 °F 71% 30.11 in 10.0 mi SE 4.6 mph - N/A   Clear
10:15 AM 54.9 °F 44.1 °F 67% 30.12 in 10.0 mi SSE 4.6 mph - N/A   Clear
10:35 AM 56.7 °F 42.8 °F 60% 30.12 in 10.0 mi SSE 6.9 mph - N/A   Clear
10:55 AM 58.1 °F 42.1 °F 55% 30.11 in 10.0 mi SE 5.8 mph - N/A   Clear
11:15 AM 59.9 °F 41.4 °F 50% 30.11 in 10.0 mi South 9.2 mph - N/A   Clear
11:35 AM 61.2 °F 42.8 °F 51% 30.10 in 10.0 mi SSE 6.9 mph - N/A   Clear
11:55 AM 61.7 °F 42.3 °F 49% 30.10 in 10.0 mi South 10.4 mph - N/A   Clear
12:15 PM 62.8 °F 43.3 °F 49% 30.09 in 10.0 mi SE 5.8 mph - N/A   Clear
12:35 PM 63.1 °F 42.4 °F 47% 30.08 in 10.0 mi SSE 3.5 mph - N/A   Clear
12:55 PM 64.6 °F 42.1 °F 44% 30.08 in 10.0 mi SSW 10.4 mph - N/A   Clear
1:15 PM 65.1 °F 42.8 °F 44% 30.06 in 10.0 mi South 8.1 mph - N/A   Clear
1:35 PM 65.7 °F 43.9 °F 45% 30.06 in 10.0 mi SSE 5.8 mph - N/A   Clear
1:55 PM 66.7 °F 44.4 °F 44% 30.04 in 10.0 mi South 9.2 mph - N/A   Clear
2:15 PM 67.3 °F 43.7 °F 42% 30.03 in 10.0 mi SE 4.6 mph - N/A   Clear
2:35 PM 67.3 °F 43.9 °F 43% 30.02 in 10.0 mi South 4.6 mph - N/A   Clear
2:55 PM 68.0 °F 43.2 °F 41% 30.01 in 10.0 mi SE 6.9 mph - N/A   Clear
3:15 PM 67.8 °F 43.5 °F 41% 30.00 in 4.0 mi SSE 4.6 mph - N/A   Haze
3:35 PM 68.9 °F 42.8 °F 39% 30.00 in 10.0 mi South 8.1 mph - N/A   Clear
3:55 PM 69.1 °F 42.4 °F 38% 30.00 in 10.0 mi South 6.9 mph - N/A   Clear
4:15 PM 69.1 °F 43.5 °F 40% 29.99 in 10.0 mi South 8.1 mph - N/A   Clear
4:35 PM 69.3 °F 44.2 °F 40% 29.98 in 10.0 mi SE 5.8 mph - N/A   Clear
4:55 PM 69.8 °F 45.1 °F 41% 29.98 in 10.0 mi SE 5.8 mph - N/A   Clear
5:15 PM 69.3 °F 44.8 °F 41% 29.98 in 10.0 mi SSE 6.9 mph - N/A   Clear
5:35 PM 68.9 °F 45.1 °F 42% 29.97 in 10.0 mi SE 6.9 mph - N/A   Clear
5:55 PM 68.4 °F 45.3 °F 44% 29.96 in 10.0 mi SE 6.9 mph - N/A   Clear
6:15 PM 67.5 °F 45.7 °F 46% 29.96 in 10.0 mi SSE 4.6 mph - N/A   Clear
6:35 PM 66.4 °F 45.5 °F 47% 29.96 in 10.0 mi SE 4.6 mph - N/A   Clear
6:55 PM 64.4 °F 46.4 °F 52% 29.96 in 10.0 mi SE 3.5 mph - N/A   Clear
7:15 PM 62.1 °F 49.5 °F 63% 29.96 in 10.0 mi Calm Calm - N/A   Clear
7:35 PM 59.2 °F 50.4 °F 73% 29.97 in 10.0 mi ESE 3.5 mph - N/A   Clear
7:55 PM 59.5 °F 47.7 °F 65% 29.97 in 10.0 mi ESE 3.5 mph - N/A   Clear
8:15 PM 59.0 °F 47.8 °F 66% 29.97 in 10.0 mi ESE 4.6 mph - N/A   Clear
8:35 PM 59.4 °F 46.0 °F 61% 29.97 in 10.0 mi ESE 4.6 mph - N/A   Clear
8:55 PM 58.8 °F 46.4 °F 63% 29.97 in 10.0 mi ESE 3.5 mph - N/A   Clear
9:15 PM 59.0 °F 45.5 °F 61% 29.97 in 10.0 mi ESE 4.6 mph - N/A   Clear
9:35 PM 58.8 °F 46.4 °F 63% 29.97 in 10.0 mi ESE 4.6 mph - N/A   Clear
9:55 PM 58.8 °F 46.9 °F 65% 29.97 in 10.0 mi SE 5.8 mph - N/A   Clear
10:15 PM 58.6 °F 46.9 °F 65% 29.97 in 10.0 mi SE 5.8 mph - N/A   Clear
10:35 PM 58.1 °F 47.3 °F 67% 29.97 in 10.0 mi SE 4.6 mph - N/A   Clear
10:55 PM 58.1 °F 47.3 °F 67% 29.97 in 10.0 mi SE 4.6 mph - N/A   Clear
11:15 PM 58.5 °F 47.3 °F 66% 29.98 in 10.0 mi SE 4.6 mph - N/A   Clear
11:35 PM 58.5 °F 47.5 °F 67% 29.98 in 10.0 mi SE 5.8 mph - N/A   Clear
11:55 PM 58.3 °F 47.7 °F 68% 29.97 in 10.0 mi ESE 3.5 mph - N/A   Clear